Weather Roundup
Issued by NWS

Home | Current Version | Previous Version | Graphics & Text | Print | Product List | Glossary Off
Versions: 1 2 3 4 5 6 7 8 9 10 11 12 13 14 15 16 17 18 19 20 21 22 23 24 25 26 27 28 29 30 31 32 33 34 35 36 37 38 39 40 41 42 43 44 45 46 47 48 49 50

246
NZUS93 KARX 280310
HRRWXR

CURRENT HOURLY OBSERVATIONS ACROSS
MUCH OF THE UPPER MISSISSIPPI VALLEY
NATIONAL WEATHER SERVICE LA CROSSE WI
1000 PM CDT TUE JUN 27 2017


...SOUTHEAST MINNESOTA...


CITY           SKY/WX    TMP DP  RH WIND       PRES   REMARKS
ROCHESTER      MOCLDY    63  46  54 SE10      29.91S
ROCHESTER/MAYO FAIR      67  43  42 SE6       29.90F
WINONA         CLOUDY    61  50  67 CALM      29.93R
AUSTIN         PTCLDY    63  46  55 SE3       29.90S
ALBERT LEA     MOCLDY    68  45  42 SE10      29.87F
DODGE CENTER   CLOUDY    64  45  48 S6        29.90S
PRESTON        MOCLDY    62  45  53 SE5       29.94R
OWATONNA       CLOUDY    70  46  43 SE12      29.85F
FARIBAULT      CLOUDY    70  45  40 SE15      29.82F
$$

...ELSEWHERE IN MINNESOTA...


CITY           SKY/WX    TMP DP  RH WIND       PRES   REMARKS
MINNEAPOLIS    CLOUDY    71  44  37 SE10G23   29.81F
INTNL FALLS    CLEAR     59  46  62 CALM      29.76R
DULUTH         CLEAR     62  46  55 S5        29.84S
RED WING       PTCLDY    66  43  42 SE9       29.85F
REDWOOD FALLS  PTCLDY    72  47  40 SE16      29.76R
MANKATO        CLOUDY    68  48  48 SE14      29.82F
WORTHINGTON    CLOUDY    72  59  63 SE15      29.77F
FAIRMONT       PTCLDY    69  51  52 SE16      29.81S
$$

...SOUTHWEST WISCONSIN...


CITY           SKY/WX    TMP DP  RH WIND       PRES   REMARKS
LA CROSSE      PTCLDY    71  48  43 S3        29.93R
PRAIRIE DU CHI CLEAR     63  46  52 CALM      29.95R
BOSCOBEL       CLEAR     61  49  64 CALM      29.96R
LONE ROCK      CLEAR     60  51  72 CALM      29.97R
PLATTEVILLE    CLEAR     61  50  67 SE7       29.99R
FORT MC COY    CLEAR     56  50  79 CALM      29.96R
CAMP DOUGLAS   PTCLDY    57  50  77 CALM      29.95R
MAUSTON-NEW LI CLEAR     58  52  79 CALM      29.95R
VIROQUA        FAIR      63  48  58 S8        29.95R
WIS DELLS      CLEAR     59  47  64 S5        29.97R
$$

...ELSEWHERE IN WISCONSIN...


CITY           SKY/WX    TMP DP  RH WIND       PRES   REMARKS
MILWAUKEE      MOCLDY    65  49  56 S10       30.01R
MADISON        CLEAR     67  48  50 S7        29.98R
GREEN BAY      CLEAR     64  53  67 S5        29.96R
EAU CLAIRE     CLEAR     64  47  53 S7        29.90R
BLACK RVR FLS  FAIR      52  47  86 CALM      29.94R
MEDFORD        CLEAR     59  49  69 S7        29.94R
WAUSAU           N/A    N/A N/A N/A MISG      29.94R
WIS RAPIDS     CLEAR     62  49  62 S5        29.97R
MARSHFIELD     CLEAR     59  48  67 SW5       29.95R
RICE LAKE      CLEAR     62  47  58 SE8       29.90F
$$

...NORTHEAST IOWA...


CITY           SKY/WX    TMP DP  RH WIND       PRES   REMARKS
WATERLOO       CLEAR     67  47  48 S9        29.90S
DUBUQUE        CLEAR     61  47  59 S12       29.97S
DECORAH        PTCLDY    63  48  59 S6        29.93R
MASON CITY     CLEAR     65  48  54 SE8       29.90R
CHARLES CITY   PTCLDY    64  46  52 SE8       29.92R
OELWEIN        PTCLDY    63  48  59 SE8       29.94R
$$

...ELSEWHERE IN IOWA...


CITY           SKY/WX    TMP DP  RH WIND       PRES   REMARKS
DES MOINES     CLOUDY    74  56  53 SE12      29.89R
IOWA CITY      PTCLDY    66  51  58 SE6       29.96S
FORT DODGE     MOCLDY    72  54  53 SE8       29.85S
MARSHALLTOWN   PTCLDY    68  52  56 SE10      29.90R
CEDAR RAPIDS   PTCLDY    64  51  62 S6        29.94R
$$

...NORTHERN ILLINOIS...


CITY           SKY/WX    TMP DP  RH WIND       PRES   REMARKS
CHICAGO-OHARE  PTCLDY    69  45  41 S8        30.03R
CHICAGO-MIDWAY PTCLDY    71  46  40 S7        30.04R
MOLINE         CLEAR     63  50  62 SE6       29.98R
ROCKFORD       PTCLDY    65  47  52 S8        30.03R
PEORIA         CLEAR     67  50  54 SE7       30.02R
$$

NOTE: "FAIR" INDICATES FEW OR NO CLOUDS BELOW 12,000 FEET WITH NO
SIGNIFICANT WEATHER AND/OR OBSTRUCTIONS TO VISIBILITY. WIND
SPEEDS ARE IN MILES-PER-HOUR.




USA.gov is the U.S. government's official web portal to all federal, state and local government web resources and services.